Meteopurmerend
purmerend
Purmerend - Baaienwijk



My webcam  My webcam


waarschuwing voor Onweer Meer informatie blitzortung!


Regen radar Meer informatie rain snow radar


Bezoek onze andere website:

CandyAppleRed WebdesignWebdesign Purmerend Candy Apple Red

MeteopurmerendBlog

Template documentation
and downloads



Onweer van: 26-07-2021 13:00 tot: 21:00 waarschuwing voor: Onweer niveau: Geel info button
Enkele onweersbuien, lokaal met hagel en veel neerslag in korte tijd.Kans op blikseminslag, hagel en veel neerslag in korte tijd.Verkeer en buitenactiviteiten kunnen hinder ondervinden.Mijd open water en open gebied, schuil niet onder bomen.Volg weerberichten en waarschuwingen.

15 daagse weersverwachting Värmdö (SE)

  • Overzicht
  • Per uur
  • 15 dagen
  • Extra
  • Vergelijk
  • Kaarten
  • Dagkaart
  • Meer »
  • Info
  • Statistieken
  • Directe link
    Temp 6h Neerslag Wind  
 04:22     21:25    Daglengte: 17:03 Vandaag
20:00
21°
 
3
 04:24     21:23    Daglengte: 16:59 Morgen
02:00
19°
 
2
08:00
23°
 
4
14:00
24°
 
5
20:00
22°
 
3
 04:26     21:21    Daglengte: 16:55 Woensdag 28 Jul
02:00
20°
 
2
08:00
20°
4.2 mm
3
14:00
22°
10.5 mm
4
warningclass
20:00
22°
1.9 mm
3
 04:28     21:18    Daglengte: 16:50 Donderdag 29 Jul
02:00
18°
 
3
08:00
20°
 
3
14:00
21°
18.9 mm
5
Locatie info
Region: Stockholm
Latitude: 59.3500°N
Longitude: 18.5000°E
12 masl
Temp/Neerslag /Baro Onweer/Dauwpunt
    Temp Baro 1h Neerslag Dauwpunt Wind UV Bewolking  
 04:22     21:25    Daglengte: 17:03 Vandaag
17:00
23°
1018.0 hPa   16.0°
4
Windvlaag: 2.5 m/s
27%
18:00
23°
1017.6 hPa   16.3°
4
Windvlaag: 2 m/s
38%
19:00
22°
1017.4 hPa   16.9°
3
Windvlaag: 1.7 m/s
41%
20:00
21°
1017.1 hPa   17.5°
3
Windvlaag: 1.7 m/s
45%
21:00
20°
1017.1 hPa   18.3°
2
Windvlaag: 1.6 m/s
58%
22:00
19°
1017.0 hPa   18.9°
2
Windvlaag: 1.8 m/s
65%
23:00
19°
1017.0 hPa   19.1°
2
Windvlaag: 1.6 m/s
67%
 04:24     21:23    Daglengte: 16:59 Morgen
00:00
19°
1016.8 hPa   19.0°
2
Windvlaag: 0.9 m/s
69%
01:00
19°
1016.4 hPa   19.0°
2
Windvlaag: 1 m/s
46%
02:00
19°
1015.9 hPa   18.8°
2
Windvlaag: 1.1 m/s
48%
03:00
20°
1015.6 hPa   18.7°
3
Windvlaag: 0.7 m/s
62%
04:00
20°
1015.2 hPa   18.8°
3
Windvlaag: 0.2 m/s
60%
05:00
20°
1014.6 hPa   18.9°
3
Windvlaag: 0.1 m/s
58%
06:00
21°
1014.3 hPa   18.2°
3
Windvlaag: 0.2 m/s
21%
07:00
22°
1014.0 hPa   16.8°
4
Windvlaag: 0.7 m/s
14%
08:00
23°
1013.9 hPa   16.9°
4
Windvlaag: 1.5 m/s
59%
09:00
23°
1013.9 hPa   17.1°
4
Windvlaag: 2.2 m/s
36%
10:00
24°
1013.7 hPa   17.3°
4
Windvlaag: 3 m/s
39%
11:00
24°
1013.4 hPa   17.1°
4
Windvlaag: 3.3 m/s
51%
12:00
24°
1013.2 hPa   17.7°
4
Windvlaag: 4.2 m/s
63%
13:00
24°
1013.0 hPa   17.5°
5
Windvlaag: 3.8 m/s
57%
14:00
24°
1012.6 hPa   17.8°
5
Windvlaag: 4.9 m/s
69%
15:00
24°
1012.3 hPa   17.1°
4
Windvlaag: 5.5 m/s
53%
16:00
24°
1012.1 hPa   16.8°
4
Windvlaag: 5.6 m/s
57%
17:00
24°
1011.9 hPa   15.9°
4
Windvlaag: 6.9 m/s
19%
18:00
24°
1011.6 hPa   15.3°
4
Windvlaag: 7 m/s
29%
19:00
23°
1011.3 hPa   15.8°
4
Windvlaag: 3.1 m/s
33%
20:00
22°
1010.9 hPa   16.2°
3
Windvlaag: 2.2 m/s
64%
21:00
21°
1010.6 hPa   16.3°
3
Windvlaag: -0 m/s
74%
22:00
20°
1010.2 hPa   16.3°
3
Windvlaag: -1.2 m/s
86%
23:00
20°
1009.8 hPa
15%
16.6°
3
Windvlaag: -0.2 m/s
85%
 04:26     21:21    Daglengte: 16:55 Woensdag 28 Jul
00:00
20°
1009.4 hPa
32%
16.9°
3
Windvlaag: 1.7 m/s
80%
01:00
20°
1008.8 hPa
15%
17.3°
3
Windvlaag: 1.7 m/s
81%
02:00
20°
1008.4 hPa
23%
17.7°
2
Windvlaag: 1.7 m/s
85%
03:00
19°
1007.8 hPa
32%
18.4°
2
Windvlaag: 2.4 m/s
83%
04:00
19°
1007.4 hPa 1.1 mm
82%
18.6°
3
Windvlaag: 2.7 m/s
81%
05:00
19°
1006.9 hPa 2.0 mm
82%
18.6°
3
Windvlaag: 2.7 m/s
82%
06:00
19°
1006.5 hPa
82%
18.5°
3
Windvlaag: 2.6 m/s
86%
07:00
20°
1006.2 hPa
82%
18.8°
3
Windvlaag: 2.4 m/s
83%
08:00
20°
1005.9 hPa 1.2 mm
82%
19.0°
3
Windvlaag: 2.6 m/s
86%
09:00
20°
1005.6 hPa
82%
19.1°
3
Windvlaag: 3.2 m/s
84%
10:00
21°
1005.3 hPa
79%
19.7°
3
Windvlaag: 4.1 m/s
24%
11:00
21°
1003.1 hPa 2.4 mm
100%
19.6°
3
Windvlaag: 5.4 m/s
76% warningclass
12:00
22°
1003.2 hPa 2.5 mm
94%
18.6°
4
Windvlaag: 5.7 m/s
82% warningclass
13:00
22°
1003.2 hPa 2.6 mm
97%
18.7°
4
Windvlaag: 6.4 m/s
50% warningclass
14:00
22°
1003.2 hPa 3.0 mm
100%
18.3°
4
Windvlaag: 6.8 m/s
61% warningclass
15:00
22°
1003.3 hPa 1.9 mm
98%
17.5°
5
Windvlaag: 7.4 m/s
82% warningclass
16:00
23°
1003.4 hPa
87%
15.4°
5
Windvlaag: 7.6 m/s
72%
17:00
23°
1003.4 hPa
46%
15.2°
4
Windvlaag: 7.6 m/s
80%
18:00
23°
1003.2 hPa
34%
18.2°
4
Windvlaag: 7.1 m/s
38%
19:00
23°
1003.0 hPa
37%
17.7°
4
Windvlaag: 6.8 m/s
31%
20:00
22°
1002.9 hPa
33%
17.7°
3
Windvlaag: 5.1 m/s
30%
21:00
21°
1002.8 hPa
22%
18.1°
2
Windvlaag: 4.9 m/s
6%
22:00
20°
1002.7 hPa
22%
17.1°
3
Windvlaag: 3.9 m/s
24%
23:00
19°
1002.5 hPa
23%
16.6°
3
Windvlaag: 3.6 m/s
24%
 04:28     21:18    Daglengte: 16:50 Donderdag 29 Jul
00:00
19°
1002.3 hPa
21%
16.5°
3
Windvlaag: 3.2 m/s
64%
01:00
18°
1002.4 hPa
21%
16.5°
3
Windvlaag: 3.7 m/s
54%
02:00
18°
1002.2 hPa
26%
16.5°
3
Windvlaag: 3.4 m/s
61%
03:00
18°
1001.8 hPa
25%
16.3°
3
Windvlaag: 3.1 m/s
53%
04:00
17°
1001.4 hPa
21%
15.9°
3
Windvlaag: 2.7 m/s
72%
05:00
17°
1001.4 hPa
22%
16.1°
2
Windvlaag: 3.2 m/s
83%
06:00
18°
1001.5 hPa
22%
15.6°
3
Windvlaag: 2.4 m/s
82%
07:00
19°
1001.2 hPa
29%
15.6°
3
Windvlaag: 2.7 m/s
75%
08:00
20°
1001.2 hPa
35%
15.0°
3
Windvlaag: 2.8 m/s
58%
09:00
20°
998.5 hPa
89%
13.5°
3
Windvlaag: 6.1 m/s
80%
10:00
20°
998.2 hPa 3.2 mm
99%
12.3°
3
Windvlaag: 6.9 m/s
72%
11:00
20°
997.8 hPa 3.2 mm
100%
12.0°
4
Windvlaag: 7.3 m/s
73%
12:00
21°
997.5 hPa 3.2 mm
100%
12.1°
5
Windvlaag: 8.1 m/s
72%
13:00
20°
997.1 hPa 3.2 mm
100%
11.3°
5
Windvlaag: 7.8 m/s
77%
14:00
21°
996.8 hPa 3.1 mm
100%
12.1°
5
Windvlaag: 7.7 m/s
23%
Temp/Neerslag /Baro Onweer/Dauwpunt
    Temp Baro Neerslag Dauwpunt Wind Bewolking  
 04:22     21:25    Daglengte: 17:03 Vandaag
17:00
23°
1018.0 hPa   16.0°
4
27%
20:00
21°
1017.1 hPa   17.5°
3
45%
23:00
19°
1017.0 hPa   19.1°
2
67%
 04:24     21:23    Daglengte: 16:59 Morgen
02:00
19°
1015.9 hPa   18.8°
2
48%
05:00
20°
1014.6 hPa   18.9°
3
58%
08:00
23°
1013.9 hPa   16.9°
4
59%
11:00
24°
1013.4 hPa   17.1°
4
51%
14:00
24°
1012.6 hPa   17.8°
5
69%
17:00
24°
1011.9 hPa   15.9°
4
19%
20:00
22°
1010.9 hPa   16.2°
3
64%
23:00
20°
1009.8 hPa   16.6°
3
85%
 04:26     21:21    Daglengte: 16:55 Woensdag 28 Jul
02:00
20°
1008.4 hPa   17.7°
2
85%
05:00
19°
1006.9 hPa 3.1 mm 18.6°
3
82%
08:00
20°
1005.9 hPa 1.2 mm 19.0°
3
86%
11:00
21°
1003.1 hPa 2.4 mm 19.6°
3
76% warningclass
14:00
22°
1003.2 hPa 8.0 mm 18.3°
4
61% warningclass
17:00
23°
1003.4 hPa 1.9 mm 15.2°
4
80%
20:00
22°
1002.9 hPa   17.7°
3
30%
23:00
19°
1002.5 hPa   16.6°
3
24%
 04:28     21:18    Daglengte: 16:50 Donderdag 29 Jul
02:00
18°
1002.2 hPa   16.5°
3
61%
05:00
17°
1001.4 hPa   16.1°
2
83%
08:00
20°
1001.2 hPa   15.0°
3
58%
11:00
20°
997.8 hPa 6.4 mm 12.0°
4
73%
14:00
21°
996.8 hPa 9.6 mm 12.1°
5
23%
17:00
20°
997.6 hPa 8.4 mm 14.6°
9
1%
20:00
17°
996.9 hPa 9.9 mm 12.9°
7
1%
23:00
15°
995.8 hPa 10.4 mm 10.8°
7
0%
 04:30     21:16    Daglengte: 16:46 Vrijdag 30 Jul
02:00
15°
993.8 hPa 10.5 mm 10.5°
5
0%
05:00
13°
992.2 hPa 11.2 mm 11.3°
5
1%
08:00
15°
991.7 hPa 11.7 mm 11.9°
5
1%
11:00
14°
991.1 hPa 15.1 mm 11.6°
5
1%
14:00
17°
991.6 hPa 15.6 mm 12.4°
4
1%
17:00
19°
992.3 hPa 16.2 mm 12.1°
5
1%
20:00
19°
992.9 hPa 16.2 mm 12.8°
3
1%
23:00
17°
994.1 hPa 16.3 mm 14.0°
5
0%
 04:33     21:14    Daglengte: 16:41 Zaterdag 31 Jul
02:00
15°
995.0 hPa 16.5 mm 13.0°
4
0%
05:00
14°
996.3 hPa 16.5 mm 10.8°
5
0%
08:00
16°
997.7 hPa 16.5 mm 9.5°
4
0%
11:00
19°
998.6 hPa 16.5 mm 9.4°
3
0%
14:00
21°
998.9 hPa 16.5 mm 11.5°
3
0%
17:00
22°
998.9 hPa 16.6 mm 13.6°
4
1%
20:00
20°
999.1 hPa 16.6 mm 14.3°
5
1%
23:00
19°
999.1 hPa 16.6 mm 13.1°
3
0%
 04:35     21:11    Daglengte: 16:36 Zondag 01 Aug
02:00
18°
998.4 hPa 16.6 mm 11.9°
2
0%
05:00
17°
997.2 hPa 16.7 mm 12.0°
1
1%
08:00
17°
996.4 hPa 17.7 mm 14.6°
4
1%
11:00
16°
995.7 hPa 22.3 mm 14.1°
4
1%
14:00
16°
996.8 hPa 25.7 mm 13.4°
4
1%
17:00
18°
997.4 hPa 26.1 mm 13.2°
4
1%
20:00
17°
998.0 hPa 26.4 mm 12.7°
4
1%
23:00
16°
998.8 hPa 26.4 mm 11.4°
5
0%
 04:37     21:09    Daglengte: 16:32 Maandag 02 Aug
02:00
15°
998.5 hPa 26.4 mm 10.7°
5
0%
05:00
14°
998.4 hPa 26.4 mm 9.7°
5
1%
08:00
16°
997.8 hPa 26.4 mm 9.4°
6
0%
11:00
18°
997.3 hPa 26.4 mm 9.3°
7
0%
14:00
19°
996.9 hPa 52.9 mm 11.2°
7
0%
20:00
17°
996.9 hPa 54.7 mm 11.9°
5
1%
 04:39     21:06    Daglengte: 16:27 Dinsdag 03 Aug
02:00
11°
999.8 hPa 55.9 mm 8.1°
5
1%
08:00
14°
1001.5 hPa 55.9 mm 7.6°
4
0%
14:00
17°
1001.4 hPa 56.4 mm 8.4°
6
1%
20:00
17°
1003.1 hPa 57.8 mm 7.5°
7
1%
 04:42     21:04    Daglengte: 16:22 Woensdag 04 Aug
02:00
13°
1005.0 hPa 58.0 mm 9.4°
5
0%
08:00
15°
1005.9 hPa 58.1 mm 11.1°
6
0%
14:00
19°
1005.9 hPa 58.5 mm 13.2°
8
1%
20:00
17°
1003.4 hPa 61.8 mm 14.2°
7
1%
 04:44     21:01    Daglengte: 16:17 Donderdag 05 Aug
02:00
17°
1001.6 hPa 65.7 mm 13.6°
6
1%
08:00
17°
998.7 hPa 70.0 mm 13.1°
6
1%
14:00
19°
1007.8 hPa 1.5 mm 12.8°
3
54%
20:00
18°
1007.2 hPa 0.8 mm 13.1°
2
66%
 04:46     20:59    Daglengte: 16:13 Vrijdag 06 Aug
02:00
16°
1007.3 hPa 0.5 mm 12.4°
1
57%
08:00
17°
1007.2 hPa 0.6 mm 12.7°
1
65%
14:00
19°
1007.0 hPa 1.4 mm 13.1°
2
65%
20:00
18°
1005.9 hPa 1.6 mm 13.6°
2
61%
 04:48     20:56    Daglengte: 16:08 Zaterdag 07 Aug
02:00
17°
1005.6 hPa 1.3 mm 13.1°
0
65%
08:00
17°
1004.8 hPa 1.4 mm 13.3°
1
68%
14:00
19°
1004.9 hPa 1.4 mm 13.4°
2
72%
20:00
18°
1004.6 hPa 0.7 mm 13.8°
1
59%
 04:51     20:54    Daglengte: 16:03 Zondag 08 Aug
02:00
17°
1004.5 hPa 0.5 mm 13.3°
1
59%
08:00
17°
1004.1 hPa   13.5°
1
59%
14:00
19°
1004.9 hPa 0.9 mm 13.6°
2
50%
20:00
18°
1005.0 hPa   13.7°
2
53%
 04:53     20:51    Daglengte: 15:58 Maandag 09 Aug
02:00
16°
1005.5 hPa 0.6 mm 12.9°
1
62%
08:00
17°
1005.9 hPa 0.4 mm 13.2°
1
63%
14:00
19°
1006.6 hPa 0.7 mm 13.5°
2
61%
20:00
18°
1006.6 hPa 0.7 mm 13.3°
1
56%
 04:55     20:49    Daglengte: 15:54 Dinsdag 10 Aug
02:00
16°
1007.0 hPa 0.7 mm 12.2°
2
58%
08:00
16°
1007.1 hPa   12.3°
2
63%
14:00
19°
1008.0 hPa 0.5 mm 13.0°
1
60%
  CAPE Lifted Index Hail Supercell Tornado SRH 3km CL BTM PRES CL TOP PRES Swiss DWD icon SMHI TS
 04:22     21:25    Daglengte: 17:03 Vandaag
17:00 0 J/kg 2.2 K 0 % 0 % 0 % 0 m²/s² 0 0 8.62 3
18:00 0 J/kg 2.6 K 0 % 0 % 0 % 0 m²/s² 0 0 8.66 3
19:00 0 J/kg 1.9 K 0 % 0 % 0 % 0 m²/s² 0 0 7.66 3
20:00 0 J/kg 1.1 K 0 % 0 % 0 % 0 m²/s² 0 0 6.86 3
21:00 4 J/kg 1.0 K 0 % 0 % 0 % 0 m²/s² 0 0 6.61 3
22:00 0 J/kg 1.2 K 0 % 0 % 0 % 0 m²/s² 0 0 7.11 3
23:00 37 J/kg 0.7 K 0 % 0 % 0 % 0 m²/s² 0 0 6.94 3
 04:24     21:23    Daglengte: 16:59 Morgen
00:00 72 J/kg 0.4 K 0 % 0 % 0 % 0 m²/s² 0 0 6.16 3
01:00 55 J/kg 0.3 K 0 % 0 % 0 % 0 m²/s² 0 0 4.2 2
02:00 16 J/kg -0.5 K 0 % 0 % 0 % 0 m²/s² 0 0 1.45 2
03:00 17 J/kg -0.5 K 0 % 0 % 0 % 0 m²/s² 0 0 0.91 3
04:00 0 J/kg -0.8 K 0 % 0 % 0 % 0 m²/s² 0 0 1.3 2
05:00 28 J/kg -0.8 K 0 % 0 % 0 % 0 m²/s² 0 0 1.48 3
06:00 118 J/kg -1.0 K 0 % 0 % 0 % 0 m²/s² 0 0 1.58 3
07:00 458 J/kg -2.0 K 0 % 0 % 0 % 0 m²/s² 0 0 0.43 2
08:00 789 J/kg -3.1 K 0 % 0 % 0 % 0 m²/s² 0 0 -0.37 3
09:00 912 J/kg -3.3 K 0 % 0 % 0 % 0 m²/s² 0 0 -0.24 3
10:00 926 J/kg -3.0 K 0 % 0 % 0 % 0 m²/s² 0 0 -0.03 3
11:00 712 J/kg -2.5 K 0 % 0 % 0 % 0 m²/s² 0 0 0.08 3
12:00 672 J/kg -2.3 K 0 % 0 % 0 % 0 m²/s² 0 0 0.22 3
13:00 438 J/kg -1.9 K 0 % 0 % 0 % 0 m²/s² 0 0 0.86 3
14:00 351 J/kg -1.7 K 0 % 0 % 0 % 0 m²/s² 0 0 1.39 3
15:00 413 J/kg -1.6 K 0 % 0 % 0 % 0 m²/s² 0 0 1.58 3
16:00 454 J/kg -1.5 K 0 % 0 % 0 % 0 m²/s² 0 0 1.77 3
17:00 399 J/kg -1.2 K 0 % 0 % 0 % 0 m²/s² 0 0 2.34 2
18:00 395 J/kg -1.4 K 0 % 0 % 0 % 0 m²/s² 0 0 1.54 3
19:00 190 J/kg -0.5 K 0 % 0 % 0 % 0 m²/s² 0 0 1.63 3
20:00 207 J/kg -1.0 K 0 % 0 % 0 % 0 m²/s² 0 0 0.11 3
21:00 132 J/kg -0.6 K 0 % 0 % 0 % 0 m²/s² 0 0 -0.03 3
22:00 71 J/kg -0.6 K 0 % 0 % 0 % 0 m²/s² 0 0 -0.12 3
23:00 0 J/kg 0.2 K 0 % 0 % 0 % 0 m²/s² 0 0 0.83 3
 04:26     21:21    Daglengte: 16:55 Woensdag 28 Jul
00:00 13 J/kg 0.0 K 0 % 0 % 0 % 0 m²/s² 0 0 0.36 3
01:00 37 J/kg -0.4 K 0 % 0 % 0 % 0 m²/s² 0 0 -0.22 3
02:00 71 J/kg -1.0 K 0 % 0 % 0 % 0 m²/s² 0 0 -0.82 3
03:00 116 J/kg -0.9 K 0 % 0 % 0 % 0 m²/s² 0 0 -0.9 3
04:00 33 J/kg -1.9 K 0 % 0 % 0 % 0 m²/s² 0 0 -1.87 61
05:00 235 J/kg -2.3 K 0 % 0 % 0 % 0 m²/s² 0 0 -2.27 63
06:00 587 J/kg -2.1 K 0 % 0 % 0 % 0 m²/s² 0 0 -1.53 55
07:00 525 J/kg -1.7 K 0 % 0 % 0 % 0 m²/s² 0 0 -1.52 80
08:00 648 J/kg -2.1 K 0 % 0 % 0 % 0 m²/s² 0 0 -1.89 80
09:00 988 J/kg -3.1 K 0 % 0 % 0 % 0 m²/s² 0 0 -3.07 3
10:00 856 J/kg -2.6 K 0 % 0 % 0 % 0 m²/s² 0 0 -2.6 3
11:00 945 J/kg -2.9 K 0 % 0 % 0 % 0 m²/s² 0 0 -2.69 3
12:00 988 J/kg -3.3 K 0 % 0 % 0 % 0 m²/s² 0 0 -2.73 2
13:00 1060 J/kg -3.7 K 0 % 0 % 0 % 0 m²/s² 0 0 -2.92 2
14:00 1046 J/kg -3.9 K 0 % 0 % 0 % 0 m²/s² 0 0 -2.94 3
15:00 1111 J/kg -4.1 K 0 % 0 % 0 % 0 m²/s² 0 0 -3.23 80
16:00 690 J/kg -2.8 K 0 % 0 % 0 % 0 m²/s² 0 0 -2.08 3
17:00 771 J/kg -2.8 K 0 % 0 % 0 % 0 m²/s² 0 0 -1.42 3
18:00 1234 J/kg -4.2 K 0 % 0 % 0 % 0 m²/s² 0 0 -1.95 2
19:00 1224 J/kg -4.2 K 0 % 0 % 0 % 0 m²/s² 0 0 -1.44 1
20:00 1070 J/kg -4.1 K 0 % 0 % 0 % 0 m²/s² 0 0 -1.01 2
21:00 601 J/kg -2.3 K 0 % 0 % 0 % 0 m²/s² 0 0 0.37 2
22:00 222 J/kg -1.3 K 0 % 0 % 0 % 0 m²/s² 0 0 0.53 2
23:00 42 J/kg -0.4 K 0 % 0 % 0 % 0 m²/s² 0 0 0.92 1
 04:28     21:18    Daglengte: 16:50 Donderdag 29 Jul
00:00 37 J/kg -0.9 K 0 % 0 % 0 % 0 m²/s² 0 0 0.57 1
01:00 74 J/kg -0.4 K 0 % 0 % 0 % 0 m²/s² 0 0 0.26 1
02:00 30 J/kg -0.1 K 0 % 0 % 0 % 0 m²/s² 0 0 1.16 1
03:00 13 J/kg 0.2 K 0 % 0 % 0 % 0 m²/s² 0 0 2.15 3
04:00 5 J/kg 0.8 K 0 % 0 % 0 % 0 m²/s² 0 0 2.57 3
05:00 0 J/kg 1.2 K 0 % 0 % 0 % 0 m²/s² 0 0 2.49 3
06:00 1 J/kg 0.9 K 0 % 0 % 0 % 0 m²/s² 0 0 1.98 2
07:00 103 J/kg -0.1 K 0 % 0 % 0 % 0 m²/s² 0 0 1.04 3
08:00 140 J/kg -0.4 K 0 % 0 % 0 % 0 m²/s² 0 0 1.19 3
09:00 155 J/kg -0.6 K 0 % 0 % 0 % 0 m²/s² 0 0 1.29 3
10:00 266 J/kg -1.2 K 0 % 0 % 0 % 0 m²/s² 0 0 1.08 80
11:00 354 J/kg -1.6 K 0 % 0 % 0 % 0 m²/s² 0 0 0.47 80
12:00 354 J/kg -1.1 K 0 % 0 % 0 % 0 m²/s² 0 0 0.88 80
13:00 284 J/kg -0.3 K 0 % 0 % 0 % 0 m²/s² 0 0 2.34 80
14:00 390 J/kg -0.8 K 0 % 0 % 0 % 0 m²/s² 0 0 1.54 80
Temp Baro Wind Neerslag
  EWN Forecast EWN WRFDA DWD ICON FMI HIRLAM MET Norway GFS
 04:22     21:25    Daglengte: 17:03 Vandaag
17:00 23.5° 1018.0 hPa 4.0 m/s 0.0 mm 23.4° 1017.3 hPa 4.3 m/s 0.0 mm 23.6° 1018.0 hPa 3.7 m/s -2.0 mm 22.6° 1018.3 hPa 4.0 m/s 0.0 mm 21.8° 1018.3 hPa 4.1 m/s
20:00 21.3° 1017.1 hPa 2.7 m/s 0.0 mm 20.4° 1016.6 hPa 2.1 m/s 0.0 mm 21.5° 1016.9 hPa 2.3 m/s 0.0 mm 20.3° 1017.5 hPa 2.7 m/s 0.0 mm 20.5° 1017.1 hPa 3.2 m/s
23:00 19.4° 1017.0 hPa 2.1 m/s 0.0 mm 16.9° 1016.0 hPa 2.9 m/s 0.0 mm 19.7° 1017.1 hPa 1.8 m/s 0.0 mm 18.1° 1017.4 hPa 1.6 m/s 0.0 mm 19.7° 1016.8 hPa 3.4 m/s
 04:24     21:23    Daglengte: 16:59 Morgen
02:00 19.3° 1015.9 hPa 2.5 m/s 0.0 mm 18.5° 1015.2 hPa 3.1 m/s 0.0 mm 19.5° 1015.9 hPa 1.9 m/s 0.0 mm 18.2° 1016.5 hPa 2.4 m/s 0.0 mm 19.9° 1015.8 hPa 4.0 m/s
05:00 20.2° 1014.6 hPa 2.9 m/s 0.0 mm 18.4° 1013.7 hPa 3.5 m/s 0.0 mm 20.7° 1014.6 hPa 2.8 m/s 0.0 mm 18.5° 1015.5 hPa 2.6 m/s 0.0 mm 20.3° 1014.9 hPa 4.3 m/s
08:00 22.8° 1013.9 hPa 3.9 m/s 0.0 mm 23.1° 1013.2 hPa 4.0 m/s 0.0 mm 23.2° 1013.9 hPa 4.2 m/s 0.0 mm 22.7° 1014.6 hPa 3.9 m/s 0.0 mm 21.8° 1014.1 hPa 4.7 m/s
11:00 24.4° 1013.4 hPa 4.4 m/s 0.0 mm 25.4° 1012.5 hPa 5.3 m/s 0.0 mm 24.3° 1013.3 hPa 4.6 m/s 0.0 mm 24.6° 1014.1 hPa 4.2 m/s 0.0 mm 22.6° 1013.5 hPa 5.0 m/s
14:00 24.5° 1012.6 hPa 4.5 m/s 0.0 mm 26.4° 1011.6 hPa 5.8 m/s 0.0 mm 24.8° 1012.4 hPa 4.3 m/s 0.0 mm 23.7° 1013.5 hPa 3.9 m/s 0.0 mm 22.6° 1012.8 hPa 5.1 m/s
17:00 24.4° 1011.9 hPa 4.2 m/s 0.0 mm 25.7° 1010.4 hPa 5.1 m/s 0.0 mm 25.0° 1010.9 hPa 4.1 m/s 0.0 mm 24.5° 1012.5 hPa 4.0 m/s 0.0 mm 22.6° 1012.2 hPa 6.1 m/s
20:00 21.8° 1010.9 hPa 2.8 m/s 0.0 mm 22.1° 1008.8 hPa 2.9 m/s 0.0 mm 22.9° 1010.0 hPa 2.6 m/s 0.0 mm 22.2° 1011.4 hPa 4.3 m/s 0.0 mm 18.8° 1011.0 hPa 1.7 m/s
23:00 20.1° 1009.8 hPa 2.8 m/s 0.0 mm 18.9° 1007.2 hPa 3.0 m/s 0.0 mm 20.8° 1008.6 hPa 1.9 m/s 0.0 mm 20.5° 1010.3 hPa 3.4 m/s 0.0 mm 18.8° 1010.3 hPa 1.2 m/s
 04:26     21:21    Daglengte: 16:55 Woensdag 28 Jul
02:00 19.6° 1008.4 hPa 2.4 m/s 0.0 mm 19.0° 1005.2 hPa 3.0 m/s 0.2 mm 20.3° 1007.0 hPa 1.5 m/s 0.1 mm 19.7° 1008.9 hPa 2.3 m/s 0.0 mm 18.0° 1008.7 hPa 4.3 m/s
05:00 19.1° 1006.9 hPa 3.3 m/s 3.1 mm 19.6° 1002.8 hPa 5.2 m/s 7.4 mm 19.8° 1005.3 hPa 3.2 m/s 4.0 mm 18.7° 1007.5 hPa 2.8 m/s 0.0 mm 18.3° 1006.6 hPa 3.0 m/s
08:00 19.7° 1005.9 hPa 3.0 m/s 1.2 mm 20.5° 1001.3 hPa 4.5 m/s 13.4 mm 19.4° 1003.3 hPa 3.5 m/s 3.1 mm 19.6° 1006.8 hPa 2.8 m/s 0.0 mm 19.7° 1005.8 hPa 1.6 m/s
11:00 21.0° 1003.1 hPa 3.2 m/s 2.4 mm 21.4° 1001.0 hPa 2.2 m/s 17.4 mm 21.1° 1002.3 hPa 4.9 m/s 0.0 mm 22.3° 1004.9 hPa 3.8 m/s
14:00 22.0° 1003.2 hPa 4.5 m/s 8.0 mm 23.1° 1001.4 hPa 4.5 m/s 22.5 mm 21.7° 1002.7 hPa 5.2 m/s 0.1 mm 22.2° 1004.7 hPa 5.2 m/s
17:00 22.7° 1003.4 hPa 4.5 m/s 1.9 mm 24.9° 1001.8 hPa 4.9 m/s 24.9 mm 22.5° 1003.0 hPa 4.6 m/s 0.5 mm 22.4° 1004.3 hPa 4.9 m/s
20:00 22.0° 1002.9 hPa 3.2 m/s 0.0 mm 22.7° 1001.3 hPa 4.0 m/s 26.1 mm 22.0° 1002.5 hPa 3.2 m/s 0.0 mm 20.9° 1003.7 hPa 4.3 m/s
23:00 19.4° 1002.5 hPa 3.0 m/s 0.0 mm 18.2° 1001.3 hPa 3.2 m/s 26.2 mm 19.7° 1002.1 hPa 3.7 m/s 0.0 mm 19.7° 1003.2 hPa 3.8 m/s
 04:28     21:18    Daglengte: 16:50 Donderdag 29 Jul
02:00 18.0° 1002.2 hPa 2.7 m/s 0.0 mm 15.8° 1002.1 hPa 2.7 m/s 26.2 mm 18.1° 1000.9 hPa 2.7 m/s 0.0 mm 18.6° 1002.6 hPa 3.7 m/s
05:00 17.1° 1001.4 hPa 2.5 m/s 0.0 mm 15.2° 1001.4 hPa 2.4 m/s 26.2 mm 17.1° 999.7 hPa 2.3 m/s 0.0 mm 18.3° 1002.1 hPa 4.3 m/s
08:00 19.6° 1001.2 hPa 2.9 m/s 0.0 mm 19.8° 1001.7 hPa 3.4 m/s 26.2 mm 18.8° 998.2 hPa 3.0 m/s 0.0 mm 19.3° 1001.5 hPa 5.1 m/s
11:00 19.9° 997.8 hPa 3.6 m/s 6.4 mm 22.6° 1001.4 hPa 5.0 m/s 26.2 mm 19.2° 996.9 hPa 3.3 m/s 0.8 mm 20.8° 1000.9 hPa 7.2 m/s
14:00 20.5° 996.8 hPa 4.9 m/s 9.6 mm 23.6° 1000.5 hPa 6.2 m/s 26.2 mm 19.8° 995.9 hPa 4.5 m/s 1.3 mm 20.6° 999.6 hPa 8.7 m/s
17:00 20.4° 997.6 hPa 9.2 m/s 8.4 mm 20.4° 997.6 hPa 9.2 m/s 8.4 mm
20:00 16.7° 996.9 hPa 6.9 m/s 9.9 mm 16.7° 996.9 hPa 6.9 m/s 9.9 mm
23:00 15.3° 995.8 hPa 6.5 m/s 10.4 mm 15.3° 995.8 hPa 6.5 m/s 10.4 mm
 04:30     21:16    Daglengte: 16:46 Vrijdag 30 Jul
02:00 14.8° 993.8 hPa 5.0 m/s 10.5 mm 14.8° 993.8 hPa 5.0 m/s 10.5 mm
05:00 13.4° 992.2 hPa 4.7 m/s 11.2 mm 13.4° 992.2 hPa 4.7 m/s 11.2 mm
08:00 14.7° 991.7 hPa 5.1 m/s 11.7 mm 14.7° 991.7 hPa 5.1 m/s 11.7 mm
11:00 14.3° 991.1 hPa 4.6 m/s 15.1 mm 14.3° 991.1 hPa 4.6 m/s 15.1 mm
14:00 16.6° 991.6 hPa 4.5 m/s 15.6 mm 16.6° 991.6 hPa 4.5 m/s 15.6 mm
17:00 18.7° 992.3 hPa 5.1 m/s 16.2 mm 18.7° 992.3 hPa 5.1 m/s 16.2 mm
20:00 19.0° 992.9 hPa 3.4 m/s 16.2 mm 19.0° 992.9 hPa 3.4 m/s 16.2 mm
23:00 16.9° 994.1 hPa 4.9 m/s 16.3 mm 16.9° 994.1 hPa 4.9 m/s 16.3 mm
 04:33     21:14    Daglengte: 16:41 Zaterdag 31 Jul
02:00 15.4° 995.0 hPa 4.2 m/s 16.5 mm 15.4° 995.0 hPa 4.2 m/s 16.5 mm
05:00 13.8° 996.3 hPa 4.5 m/s 16.5 mm 13.8° 996.3 hPa 4.5 m/s 16.5 mm
08:00 16.3° 997.7 hPa 3.6 m/s 16.5 mm 16.3° 997.7 hPa 3.6 m/s 16.5 mm
11:00 19.5° 998.6 hPa 2.9 m/s 16.5 mm 19.5° 998.6 hPa 2.9 m/s 16.5 mm
14:00 21.4° 998.9 hPa 3.3 m/s 16.5 mm 21.4° 998.9 hPa 3.3 m/s 16.5 mm
17:00 21.8° 998.9 hPa 4.3 m/s 16.6 mm 21.8° 998.9 hPa 4.3 m/s 16.6 mm
20:00 20.1° 999.1 hPa 4.7 m/s 16.6 mm 20.1° 999.1 hPa 4.7 m/s 16.6 mm
23:00 18.6° 999.1 hPa 3.2 m/s 16.6 mm 18.6° 999.1 hPa 3.2 m/s 16.6 mm
 04:35     21:11    Daglengte: 16:36 Zondag 01 Aug
02:00 17.6° 998.4 hPa 2.3 m/s 16.6 mm 17.6° 998.4 hPa 2.3 m/s 16.6 mm
05:00 17.2° 997.2 hPa 0.9 m/s 16.7 mm 17.2° 997.2 hPa 0.9 m/s 16.7 mm
08:00 16.7° 996.4 hPa 3.7 m/s 17.7 mm 16.7° 996.4 hPa 3.7 m/s 17.7 mm
11:00 15.7° 995.7 hPa 3.9 m/s 22.3 mm 15.7° 995.7 hPa 3.9 m/s 22.3 mm
14:00 15.9° 996.8 hPa 4.0 m/s 25.7 mm 15.9° 996.8 hPa 4.0 m/s 25.7 mm
17:00 17.9° 997.4 hPa 4.1 m/s 26.1 mm 17.9° 997.4 hPa 4.1 m/s 26.1 mm
20:00 17.5° 998.0 hPa 3.9 m/s 26.4 mm 17.5° 998.0 hPa 3.9 m/s 26.4 mm
23:00 16.0° 998.8 hPa 5.0 m/s 26.4 mm 16.0° 998.8 hPa 5.0 m/s 26.4 mm
 04:37     21:09    Daglengte: 16:32 Maandag 02 Aug
02:00 15.0° 998.5 hPa 5.2 m/s 26.4 mm 15.0° 998.5 hPa 5.2 m/s 26.4 mm
05:00 14.2° 998.4 hPa 4.8 m/s 26.4 mm 14.2° 998.4 hPa 4.8 m/s 26.4 mm
08:00 16.4° 997.8 hPa 6.1 m/s 26.4 mm 16.4° 997.8 hPa 6.1 m/s 26.4 mm
11:00 17.9° 997.3 hPa 7.3 m/s 26.4 mm 17.9° 997.3 hPa 7.3 m/s 26.4 mm
14:00 18.6° 996.9 hPa 7.0 m/s 26.4 mm 18.6° 996.9 hPa 7.0 m/s 26.4 mm
20:00 17.1° 996.9 hPa 4.6 m/s 28.0 mm 17.1° 996.9 hPa 4.6 m/s 28.0 mm
 04:39     21:06    Daglengte: 16:27 Dinsdag 03 Aug
02:00 11.4° 999.8 hPa 4.9 m/s 28.0 mm 11.4° 999.8 hPa 4.9 m/s 28.0 mm
08:00 14.0° 1001.5 hPa 3.6 m/s 28.0 mm 14.0° 1001.5 hPa 3.6 m/s 28.0 mm
14:00 17.5° 1001.4 hPa 6.5 m/s 28.4 mm 17.5° 1001.4 hPa 6.5 m/s 28.4 mm
20:00 16.6° 1003.1 hPa 6.8 m/s 29.0 mm 16.6° 1003.1 hPa 6.8 m/s 29.0 mm
 04:42     21:04    Daglengte: 16:22 Woensdag 04 Aug
02:00 13.1° 1005.0 hPa 5.5 m/s 29.0 mm 13.1° 1005.0 hPa 5.5 m/s 29.0 mm
08:00 15.1° 1005.9 hPa 6.5 m/s 29.0 mm 15.1° 1005.9 hPa 6.5 m/s 29.0 mm
14:00 19.2° 1005.9 hPa 7.6 m/s 29.5 mm 19.2° 1005.9 hPa 7.6 m/s 29.5 mm
20:00 17.2° 1003.4 hPa 7.1 m/s 31.5 mm 17.2° 1003.4 hPa 7.1 m/s 31.5 mm
 04:44     21:01    Daglengte: 16:17 Donderdag 05 Aug
02:00 16.7° 1001.6 hPa 6.2 m/s 32.9 mm 16.7° 1001.6 hPa 6.2 m/s 32.9 mm
08:00 16.5° 998.7 hPa 5.9 m/s 36.4 mm 16.5° 998.7 hPa 5.9 m/s 36.4 mm
14:00 19.0° 1007.8 hPa 2.5 m/s 1.5 mm
20:00 18.1° 1007.2 hPa 2.2 m/s 0.8 mm
 04:46     20:59    Daglengte: 16:13 Vrijdag 06 Aug
02:00 16.0° 1007.3 hPa 1.5 m/s 0.5 mm
08:00 17.1° 1007.2 hPa 0.7 m/s 0.6 mm
14:00 19.2° 1007.0 hPa 2.0 m/s 1.4 mm
20:00 18.1° 1005.9 hPa 1.9 m/s 1.6 mm
 04:48     20:56    Daglengte: 16:08 Zaterdag 07 Aug
02:00 16.6° 1005.6 hPa 0.4 m/s 1.3 mm
08:00 17.3° 1004.8 hPa 0.6 m/s 1.4 mm
14:00 18.9° 1004.9 hPa 2.4 m/s 1.4 mm
20:00 18.1° 1004.6 hPa 1.3 m/s 0.7 mm
 04:51     20:54    Daglengte: 16:03 Zondag 08 Aug
02:00 16.6° 1004.5 hPa 1.0 m/s 0.5 mm
08:00 17.3° 1004.1 hPa 1.0 m/s 0.0 mm
14:00 19.3° 1004.9 hPa 2.4 m/s 0.9 mm
20:00 18.1° 1005.0 hPa 1.9 m/s 0.0 mm
 04:53     20:51    Daglengte: 15:58 Maandag 09 Aug
02:00 16.3° 1005.5 hPa 1.1 m/s 0.6 mm
08:00 16.8° 1005.9 hPa 0.7 m/s 0.4 mm
14:00 19.2° 1006.6 hPa 1.8 m/s 0.7 mm
20:00 17.9° 1006.6 hPa 1.4 m/s 0.7 mm
 04:55     20:49    Daglengte: 15:54 Dinsdag 10 Aug
02:00 15.8° 1007.0 hPa 1.8 m/s 0.7 mm
08:00 16.3° 1007.1 hPa 1.8 m/s 0.0 mm
14:00 18.5° 1008.0 hPa 0.7 m/s 0.5 mm
FMI Hirlam - 7.5 km EWN WRFDA - 12 km DWD ICON - 7 km GFS - 25 km Basiskaart






























































Updatetijd (Europe/Amsterdam) Resolutie Lengte Stap
FMI Hirlam 14:00, 20:00, 02:00, 08:00 7.5 km 49h 1h
EWN WRFDA 10:30, 16:30, 22:30, 04:30 12 km 73h 1h
DWD ICON 11:45, 17:45, 23:45, 05:45 7 km 75h 1h
GFS 14:15, 20:15, 02:15, 08:15 25 km 237h 3h
30+ mm
25-30 mm
20-25 mm
15-20 mm
10-15 mm
6-10 mm
4-6 mm
2-4 mm
1-2 mm
0.5-1 mm
0.2-0.5 mm
0.1-0.2 mm
30+ mm
25-30 mm
20-25 mm
15-20 mm
10-15 mm
6-10 mm
4-6 mm
2-4 mm
1-2 mm
0.5-1 mm
0.2-0.5 mm
0.1-0.2 mm
Sneeuwval
Natte sneeuw
Hagel
Vorst
30+ mm
25-30 mm
20-25 mm
15-20 mm
10-15 mm
6-10 mm
4-6 mm
2-4 mm
1-2 mm
0.5-1 mm
0.2-0.5 mm
0.1-0.2 mm
Sneeuwval
Natte sneeuw
Hagel
Vorst
Onweer
50 mm
40 mm
30 mm
26 mm
22 mm
18 mm
14 mm
10 mm
9 mm
8 mm
7 mm
6 mm
5 mm
4.5 mm
4 mm
3.5 mm
3 mm
2.5 mm
2 mm
1.5 mm
1 mm
0.8 mm
0.6 mm
0.4 mm
0.2 mm
0.05 mm
35°
30°
25°
20°
15°
10°
-5°
-10°
-15°
-20°
-25°
-30°
-35°